When you browse on this site, cookies collect data to enhance your experience and personalize the content and advertising you see.
Visit our Privacy Policy to learn more. By continuing to use the site, you agree to this use of cookies and data.
  • In Latvia
  • List of Countries
  • For 7 days
  • Water Temperature
  • Satellite Maps
  • Weather Map
  • Weather Widgets
  • user-avatar
    Login

    Hourly Weather Barra

    Today, 22 April, Monday

    Time Temperature Precipitation Wind Pressure Humidity
    00:00 +24°C° 0.3 mm 3 mps 749 mmHg 95%
    01:00 +24°C° 0.3 mm 3 mps 749 mmHg 96%
    02:00 +24°C° 0.3 mm 3 mps 749 mmHg 96%
    03:00 +24°C° 0.3 mm 3 mps 749 mmHg 96%
    04:00 +22°C° 0 mm 3 mps 748 mmHg 97%
    05:00 +22°C° 0.2 mm 3 mps 749 mmHg 97%
    06:00 +22°C° 0.2 mm 3 mps 749 mmHg 97%
    07:00 +22°C° 0.2 mm 3 mps 749 mmHg 97%
    08:00 +25°C° 0.1 mm 3 mps 749 mmHg 90%
    09:00 +26°C° 0.1 mm 4 mps 749 mmHg 83%
    10:00 +27°C° 0.1 mm 4 mps 750 mmHg 76%
    11:00 +28°C° 0.1 mm 4 mps 749 mmHg 71%
    12:00 +29°C° 0.1 mm 4 mps 749 mmHg 65%
    13:00 +32°C° 0.1 mm 4 mps 749 mmHg 60%
    14:00 +30°C° 0 mm 4 mps 749 mmHg 63%
    15:00 +30°C° 0 mm 4 mps 748 mmHg 65%
    16:00 +29°C° 0 mm 4 mps 748 mmHg 68%
    17:00 +28°C° 0 mm 3 mps 748 mmHg 76%
    18:00 +26°C° 0 mm 3 mps 749 mmHg 84%
    19:00 +25°C° 0 mm 3 mps 749 mmHg 92%
    20:00 +24°C° 0.2 mm 3 mps 750 mmHg 93%
    21:00 +24°C° 0.2 mm 3 mps 750 mmHg 95%
    22:00 +24°C° 0.2 mm 3 mps 750 mmHg 96%
    23:00 +24°C° 0.3 mm 3 mps 750 mmHg 96%

    Tomorrow, 23 April, Tuesday

    Time Temperature Precipitation Wind Pressure Humidity
    00:00 +24°C° 0.3 mm 3 mps 750 mmHg 96%
    01:00 +24°C° 0.3 mm 3 mps 750 mmHg 96%
    02:00 +24°C° 0.5 mm 3 mps 750 mmHg 96%
    03:00 +24°C° 0.5 mm 3 mps 749 mmHg 96%
    04:00 +24°C° 0.5 mm 3 mps 749 mmHg 97%
    05:00 +24°C° 0.5 mm 3 mps 749 mmHg 97%
    06:00 +24°C° 0.5 mm 3 mps 750 mmHg 96%
    07:00 +24°C° 0.5 mm 3 mps 750 mmHg 96%
    08:00 +25°C° 0.3 mm 4 mps 750 mmHg 92%
    09:00 +26°C° 0.3 mm 4 mps 751 mmHg 88%
    10:00 +26°C° 0.3 mm 4 mps 751 mmHg 84%
    11:00 +27°C° 0.4 mm 4 mps 750 mmHg 81%
    12:00 +28°C° 0.4 mm 4 mps 750 mmHg 77%
    13:00 +29°C° 0.4 mm 4 mps 750 mmHg 74%
    14:00 +28°C° 0.4 mm 4 mps 749 mmHg 75%
    15:00 +28°C° 0.4 mm 4 mps 749 mmHg 76%
    16:00 +28°C° 0.4 mm 4 mps 748 mmHg 77%
    17:00 +27°C° 0.3 mm 3 mps 749 mmHg 82%
    18:00 +26°C° 0.3 mm 3 mps 749 mmHg 88%
    19:00 +24°C° 0.3 mm 3 mps 750 mmHg 93%
    20:00 +24°C° 0.5 mm 3 mps 750 mmHg 94%
    21:00 +24°C° 0.5 mm 3 mps 750 mmHg 94%
    22:00 +24°C° 0.5 mm 3 mps 751 mmHg 95%
    23:00 +24°C° 1.1 mm 3 mps 750 mmHg 95%

    Day after tomorrow, 24 April, Wednesday

    Time Temperature Precipitation Wind Pressure Humidity
    00:00 +24°C° 1.1 mm 3 mps 750 mmHg 95%
    01:00 +24°C° 1.1 mm 3 mps 750 mmHg 95%
    02:00 +24°C° 0.7 mm 3 mps 750 mmHg 95%
    03:00 +24°C° 0.7 mm 3 mps 749 mmHg 95%
    04:00 +24°C° 0.7 mm 3 mps 749 mmHg 95%
    05:00 +24°C° 0.2 mm 3 mps 749 mmHg 94%
    06:00 +24°C° 0.2 mm 3 mps 750 mmHg 94%
    07:00 +24°C° 0.2 mm 3 mps 750 mmHg 94%
    08:00 +25°C° 0.2 mm 4 mps 750 mmHg 90%
    09:00 +26°C° 0.2 mm 4 mps 750 mmHg 86%
    10:00 +27°C° 0.2 mm 4 mps 751 mmHg 82%
    11:00 +28°C° 0.4 mm 4 mps 750 mmHg 78%
    12:00 +29°C° 0.4 mm 4 mps 750 mmHg 74%
    13:00 +29°C° 0.4 mm 4 mps 749 mmHg 71%
    14:00 +29°C° 0.2 mm 4 mps 749 mmHg 72%
    15:00 +29°C° 0.2 mm 4 mps 748 mmHg 73%
    16:00 +29°C° 0.2 mm 4 mps 748 mmHg 74%
    17:00 +27°C° 0.3 mm 4 mps 748 mmHg 80%
    18:00 +26°C° 0.3 mm 4 mps 749 mmHg 86%
    19:00 +25°C° 0.3 mm 4 mps 749 mmHg 92%
    20:00 +25°C° 0.3 mm 4 mps 750 mmHg 93%
    21:00 +25°C° 0.3 mm 4 mps 750 mmHg 93%
    22:00 +23°C° 0.3 mm 4 mps 750 mmHg 93%
    23:00 +23°C° 0.5 mm 4 mps 750 mmHg 94%

    25 April, Thursday

    Time Temperature Precipitation Wind Pressure Humidity
    00:00 +23°C° 0.5 mm 4 mps 750 mmHg 95%
    01:00 +23°C° 0.5 mm 4 mps 749 mmHg 95%
    02:00 +23°C° 0.7 mm 4 mps 749 mmHg 96%
    03:00 +23°C° 0.7 mm 4 mps 749 mmHg 96%
    04:00 +23°C° 0.7 mm 4 mps 748 mmHg 96%
    05:00 +23°C° 0.4 mm 4 mps 749 mmHg 96%
    06:00 +23°C° 0.4 mm 4 mps 749 mmHg 96%
    07:00 +23°C° 0.4 mm 4 mps 749 mmHg 96%
    08:00 +25°C° 0.6 mm 4 mps 750 mmHg 93%
    09:00 +25°C° 0.6 mm 4 mps 750 mmHg 90%
    10:00 +26°C° 0.6 mm 4 mps 750 mmHg 88%
    11:00 +27°C° 1 mm 4 mps 750 mmHg 86%
    12:00 +27°C° 1 mm 4 mps 749 mmHg 83%
    13:00 +28°C° 1 mm 4 mps 748 mmHg 81%
    14:00 +28°C° 1 mm 4 mps 748 mmHg 82%
    15:00 +27°C° 1 mm 4 mps 748 mmHg 83%
    16:00 +27°C° 1 mm 4 mps 747 mmHg 84%
    17:00 +26°C° 1.1 mm 4 mps 748 mmHg 88%
    18:00 +25°C° 1.1 mm 4 mps 748 mmHg 92%
    19:00 +24°C° 1.1 mm 3 mps 749 mmHg 95%
    20:00 +23°C° 1.4 mm 4 mps 749 mmHg 95%
    21:00 +23°C° 1.4 mm 4 mps 750 mmHg 96%
    22:00 +23°C° 1.4 mm 4 mps 750 mmHg 96%
    23:00 +23°C° 1.3 mm 4 mps 750 mmHg 96%

    26 April, Friday

    Time Temperature Precipitation Wind Pressure Humidity
    00:00 +23°C° 1.3 mm 4 mps 749 mmHg 96%
    01:00 +23°C° 1.3 mm 4 mps 749 mmHg 97%
    02:00 +23°C° 1.1 mm 4 mps 749 mmHg 97%
    03:00 +23°C° 1.1 mm 4 mps 748 mmHg 97%
    04:00 +23°C° 1.1 mm 4 mps 748 mmHg 97%
    05:00 +23°C° 0.9 mm 4 mps 749 mmHg 97%
    06:00 +23°C° 0.9 mm 4 mps 749 mmHg 97%
    07:00 +23°C° 0.9 mm 4 mps 749 mmHg 96%
    08:00 +23°C° 1 mm 4 mps 750 mmHg 96%
    09:00 +25°C° 1 mm 4 mps 750 mmHg 95%
    10:00 +25°C° 1 mm 4 mps 750 mmHg 94%
    11:00 +25°C° 1.2 mm 4 mps 750 mmHg 93%
    12:00 +26°C° 1.2 mm 4 mps 749 mmHg 92%
    13:00 +26°C° 1.2 mm 4 mps 748 mmHg 91%
    14:00 +26°C° 1 mm 4 mps 748 mmHg 92%
    15:00 +26°C° 1 mm 4 mps 748 mmHg 92%
    16:00 +25°C° 1 mm 4 mps 748 mmHg 93%
    17:00 +25°C° 0.6 mm 4 mps 748 mmHg 94%
    18:00 +23°C° 0.6 mm 4 mps 749 mmHg 95%
    19:00 +23°C° 0.6 mm 4 mps 749 mmHg 96%
    20:00 +23°C° 0.7 mm 4 mps 750 mmHg 96%
    21:00 +23°C° 0.7 mm 4 mps 750 mmHg 96%
    22:00 +24°C° 0.7 mm 3 mps 750 mmHg 96%
    23:00 +23°C° 0.4 mm 4 mps 750 mmHg 96%

    27 April, Saturday

    Time Temperature Precipitation Wind Pressure Humidity
    00:00 +23°C° 0.4 mm 4 mps 750 mmHg 96%
    01:00 +23°C° 0.4 mm 4 mps 750 mmHg 96%
    02:00 +22°C° 0.1 mm 4 mps 749 mmHg 95%
    03:00 +22°C° 0.1 mm 4 mps 749 mmHg 94%
    04:00 +22°C° 0.1 mm 4 mps 749 mmHg 93%
    05:00 +21°C° 0 mm 4 mps 750 mmHg 92%
    06:00 +21°C° 0 mm 4 mps 750 mmHg 91%
    07:00 +21°C° 0 mm 4 mps 750 mmHg 89%
    08:00 +22°C° 0 mm 4 mps 751 mmHg 81%
    09:00 +25°C° 0 mm 4 mps 751 mmHg 73%
    10:00 +27°C° 0 mm 4 mps 751 mmHg 65%
    11:00 +27°C° 0 mm 5 mps 751 mmHg 63%
    12:00 +28°C° 0 mm 5 mps 750 mmHg 62%
    13:00 +29°C° 0 mm 5 mps 749 mmHg 60%
    14:00 +28°C° 0 mm 5 mps 749 mmHg 61%
    15:00 +28°C° 0 mm 5 mps 749 mmHg 61%
    16:00 +28°C° 0 mm 5 mps 749 mmHg 61%
    17:00 +27°C° 0 mm 5 mps 749 mmHg 66%
    18:00 +26°C° 0 mm 5 mps 750 mmHg 71%
    19:00 +25°C° 0 mm 4 mps 750 mmHg 76%
    20:00 +23°C° 0 mm 4 mps 751 mmHg 79%
    21:00 +23°C° 0 mm 4 mps 751 mmHg 81%
    22:00 +23°C° 0 mm 4 mps 751 mmHg 84%
    23:00 +23°C° 0 mm 4 mps 751 mmHg 86%
    Show more